KJ6EI Weather Reports


time (UTC)temp
F
wind
direction
speed
knots
gust
knots
rain 1hr
in
rain 24hr
in
rain mn
in
humidity
%
barometer
mb
20260506073045 51 122 0.0 0.0 0.00 0.00 0.00 93 1013.7
20260506071541 52 122 0.0 1.7 0.00 0.00 0.00 92 1013.5
20260506061538 53 122 0.9 2.6 0.00 0.00 0.00 92 1013.3
20260506044537 55 122 0.9 2.6 0.00 0.00 0.00 88 1013.0
20260506043044 55 122 1.7 2.6 0.00 0.00 0.00 87 1012.8
20260506041537 56 122 1.7 2.6 0.00 0.00 0.00 85 1012.4
20260506040044 56 122 1.7 3.5 0.00 0.00 0.00 84 1012.3
20260506034533 57 122 1.7 3.5 0.00 0.00 0.00 82 1012.2
20260506033032 58 113 1.7 3.5 0.00 0.00 0.00 81 1012.0
20260506031532 59 123 1.7 3.5 0.00 0.00 0.00 80 1011.8
20260506030030 60 112 1.7 3.5 0.00 0.00 0.00 77 1011.8
20260506024540 61 109 1.7 3.5 0.00 0.00 0.00 76 1011.7
20260506023030 61 107 1.7 3.5 0.00 0.00 0.00 75 1011.7
20260506021543 62 107 1.7 3.5 0.00 0.00 0.00 74 1011.9
20260506020028 62 122 1.7 3.5 0.00 0.00 0.00 74 1011.9
20260506014528 62 96 1.7 4.3 0.00 0.00 0.00 72 1011.9
20260506013028 62 96 1.7 5.2 0.00 0.00 0.00 73 1011.8
20260506011529 62 107 2.6 6.1 0.00 0.00 0.00 73 1011.9
20260506010029 63 119 2.6 6.1 0.00 0.00 0.00 72 1012.0
20260506004527 63 123 2.6 5.2 0.00 0.00 0.00 72 1012.1
20260506003025 63 113 3.5 6.1 0.00 0.00 0.00 73 1012.2
20260506001524 63 113 2.6 6.1 0.00 0.00 0.00 72 1012.3
20260506000025 63 95 3.5 6.1 0.00 0.00 0.00 72 1012.3
20260505234524 63 119 3.5 6.1 0.00 0.00 0.00 72 1012.4
20260505233026 63 122 3.5 6.1 0.00 0.00 0.00 71 1012.8
20260505231528 63 97 4.3 6.1 0.00 0.00 0.00 72 1012.8
20260505230024 63 115 4.3 7.0 0.00 0.00 0.00 72 1013.0
20260505224528 64 119 3.5 7.0 0.00 0.00 0.00 73 1013.0
20260505223021 63 119 5.2 7.8 0.00 0.00 0.00 71 1013.1
20260505221520 63 108 4.3 7.8 0.00 0.00 0.00 72 1013.4
20260505220018 63 96 5.2 8.7 0.00 0.00 0.00 71 1013.5
20260505214517 63 113 6.1 8.7 0.00 0.00 0.00 73 1013.5
20260505213019 63 92 5.2 7.8 0.00 0.00 0.00 71 1013.5
20260505211533 63 102 5.2 7.8 0.00 0.00 0.00 73 1013.8
20260505210015 63 97 5.2 7.8 0.00 0.00 0.00 74 1013.7
20260505204515 62 95 6.1 7.8 0.00 0.00 0.00 73 1013.7
20260505203014 62 109 5.2 7.8 0.00 0.00 0.00 71 1013.7
20260505201513 62 105 4.3 8.7 0.00 0.00 0.00 74 1013.9
20260505200011 62 134 6.1 8.7 0.00 0.00 0.00 74 1013.8
20260505194510 61 122 6.1 8.7 0.00 0.00 0.00 74 1013.8
20260505193009 62 109 4.3 9.6 0.00 0.00 0.00 73 1013.9
20260505191506 61 128 6.1 7.8 0.00 0.00 0.00 76 1013.9
20260505190008 60 141 6.1 7.8 0.00 0.00 0.00 75 1013.8
20260505184601 60 101 6.1 8.7 0.00 0.00 0.00 77 1013.9
20260505183057 60 101 5.2 7.8 0.00 0.00 0.00 77 1014.0
20260505181552 61 119 3.5 7.0 0.00 0.00 0.00 77 1013.9
20260505180053 60 106 4.3 7.0 0.00 0.00 0.00 78 1013.7
20260505174544 59 115 4.3 7.0 0.00 0.00 0.00 80 1013.8
20260505173039 57 108 4.3 7.8 0.00 0.00 0.00 81 1013.8
20260505171535 57 107 4.3 7.0 0.00 0.00 0.00 82 1013.7
20260505170037 56 125 4.3 7.0 0.00 0.00 0.00 83 1013.7
20260505164535 56 106 4.3 7.0 0.00 0.00 0.00 83 1013.6
20260505163033 56 103 2.6 5.2 0.00 0.00 0.00 83 1013.5
20260505161528 55 120 2.6 6.1 0.00 0.00 0.00 84 1013.5
20260505153024 55 117 3.5 6.1 0.00 0.00 0.00 85 1013.3
20260505151531 55 118 2.6 3.5 0.00 0.00 0.00 85 1013.0
20260505124559 50 121 0.0 0.9 0.00 0.00 0.00 93 1011.1
20260505123055 50 121 0.9 2.6 0.00 0.00 0.00 93 1011.1
20260505121551 50 122 0.9 1.7 0.00 0.00 0.00 93 1010.8
20260505120105 50 122 0.9 1.7 0.00 0.00 0.00 93 1010.8
20260505114549 51 122 0.0 1.7 0.00 0.00 0.00 93 1010.7
20260505113054 51 122 0.9 2.6 0.00 0.00 0.00 92 1010.5
20260505111547 51 122 0.9 2.6 0.00 0.00 0.00 92 1010.5
20260505101537 52 122 0.9 1.7 0.00 0.00 0.00 91 1009.9
20260505100036 53 122 1.7 2.6 0.00 0.00 0.00 91 1009.7
20260505094533 53 122 0.9 2.6 0.00 0.00 0.00 90 1009.4
20260505093044 53 122 0.9 2.6 0.00 0.00 0.00 90 1009.4
20260505091530 54 122 0.9 2.6 0.00 0.00 0.00 90 1009.3
20260505090031 54 122 1.7 3.5 0.00 0.00 0.00 89 1009.1
20260505084531 54 117 0.9 2.6 0.00 0.00 0.00 89 1009.0
20260505083024 54 117 0.9 2.6 0.00 0.00 0.00 88 1008.8
20260505081523 55 117 0.9 2.6 0.00 0.00 0.00 88 1008.8